| time (UTC) | temp F | wind direction | speed MPH | gust MPH | rain 1hr in | rain 24hr in | rain mn in | humidity % | barometer mb |
| 20260503213032 | 62 | 234 | 5.0 | 17.0 | 0.00 | 0.00 | 0.00 | 44 | 1014.8 |
| 20260503211531 | 61 | 210 | 9.0 | 18.0 | 0.00 | 0.00 | 0.00 | 42 | 1014.9 |
| 20260503210033 | 62 | 217 | 8.0 | 21.0 | 0.00 | 0.00 | 0.00 | 41 | 1015.0 |
| 20260503204531 | 62 | 237 | 7.0 | 19.0 | 0.00 | 0.00 | 0.00 | 42 | 1015.3 |
| 20260503203036 | 61 | 256 | 8.0 | 20.0 | 0.00 | 0.00 | 0.00 | 40 | 1015.5 |
| 20260503201532 | 62 | 227 | 5.0 | 22.0 | 0.00 | 0.00 | 0.00 | 42 | 1015.4 |
| 20260503200030 | 63 | 238 | 8.0 | 16.0 | 0.00 | 0.00 | 0.00 | 39 | 1015.5 |
| 20260503194532 | 61 | 215 | 5.0 | 21.0 | 0.00 | 0.00 | 0.00 | 39 | 1015.8 |
| 20260503193030 | 60 | 238 | 6.0 | 15.0 | 0.00 | 0.00 | 0.00 | 43 | 1016.0 |
| 20260503191532 | 60 | 221 | 4.0 | 16.0 | 0.00 | 0.00 | 0.00 | 41 | 1016.6 |
| 20260503190033 | 60 | 222 | 7.0 | 17.0 | 0.00 | 0.00 | 0.00 | 41 | 1016.8 |
| 20260503184536 | 61 | 217 | 8.0 | 20.0 | 0.00 | 0.00 | 0.00 | 42 | 1017.1 |
| 20260503183031 | 60 | 229 | 8.0 | 18.0 | 0.00 | 0.00 | 0.00 | 41 | 1017.3 |
| 20260503181531 | 61 | 226 | 3.0 | 13.0 | 0.00 | 0.00 | 0.00 | 40 | 1017.4 |
| 20260503180035 | 60 | 217 | 5.0 | 17.0 | 0.00 | 0.00 | 0.00 | 41 | 1017.6 |
| 20260503174533 | 60 | 197 | 5.0 | 17.0 | 0.00 | 0.00 | 0.00 | 43 | 1017.7 |
| 20260503173035 | 59 | 209 | 5.0 | 17.0 | 0.00 | 0.00 | 0.00 | 40 | 1017.9 |
| 20260503171545 | 60 | 190 | 10.0 | 18.0 | 0.00 | 0.00 | 0.00 | 40 | 1018.2 |
| 20260503081534 | 33 | 30 | 0.0 | 2.0 | 0.00 | 0.00 | 0.00 | 87 | 1018.5 |
| 20260503071552 | 35 | 30 | 0.0 | 0.0 | 0.00 | 0.00 | 0.00 | 84 | 1018.4 |
| 20260503054539 | 35 | 0 | 0.0 | 2.0 | 0.00 | 0.00 | 0.00 | 85 | 1018.9 |
| 20260503053037 | 35 | 0 | 0.0 | 2.0 | 0.00 | 0.00 | 0.00 | 85 | 1018.9 |
| 20260503051532 | 36 | 0 | 0.0 | 1.0 | 0.00 | 0.00 | 0.00 | 81 | 1018.8 |
| 20260503050030 | 35 | 0 | 0.0 | 0.0 | 0.00 | 0.00 | 0.00 | 84 | 1018.9 |
| 20260503044544 | 35 | 0 | 0.0 | 0.0 | 0.00 | 0.00 | 0.00 | 83 | 1018.9 |
| 20260503043042 | 37 | 0 | 0.0 | 0.0 | 0.00 | 0.00 | 0.00 | 81 | 1018.9 |
| 20260503041532 | 36 | 0 | 0.0 | 0.0 | 0.00 | 0.00 | 0.00 | 85 | 1018.9 |
| 20260503040038 | 36 | 0 | 0.0 | 0.0 | 0.00 | 0.00 | 0.00 | 83 | 1019.1 |
| 20260503034530 | 38 | 0 | 0.0 | 0.0 | 0.00 | 0.00 | 0.00 | 79 | 1019.0 |
| 20260503033029 | 37 | 0 | 0.0 | 0.0 | 0.00 | 0.00 | 0.00 | 81 | 1019.1 |
| 20260503031532 | 37 | 0 | 0.0 | 0.0 | 0.00 | 0.00 | 0.00 | 81 | 1019.2 |
| 20260503030029 | 38 | 0 | 0.0 | 0.0 | 0.00 | 0.00 | 0.00 | 80 | 1019.1 |
| 20260503024531 | 39 | 0 | 0.0 | 0.0 | 0.00 | 0.00 | 0.00 | 77 | 1019.1 |
| 20260503023031 | 38 | 0 | 0.0 | 0.0 | 0.00 | 0.00 | 0.00 | 77 | 1019.1 |
| 20260503021530 | 40 | 0 | 0.0 | 0.0 | 0.00 | 0.00 | 0.00 | 74 | 1019.0 |
| 20260503020034 | 40 | 0 | 0.0 | 0.0 | 0.00 | 0.00 | 0.00 | 74 | 1018.7 |
| 20260503014532 | 40 | 0 | 0.0 | 0.0 | 0.00 | 0.00 | 0.00 | 72 | 1018.5 |
| 20260503013029 | 42 | 0 | 0.0 | 1.0 | 0.00 | 0.00 | 0.00 | 68 | 1018.5 |
| 20260503011532 | 42 | 0 | 0.0 | 2.0 | 0.00 | 0.00 | 0.00 | 67 | 1018.2 |
| 20260503010035 | 46 | 30 | 1.0 | 5.0 | 0.00 | 0.00 | 0.00 | 57 | 1018.2 |
| 20260503004532 | 47 | 30 | 1.0 | 10.0 | 0.00 | 0.00 | 0.00 | 54 | 1018.1 |
| 20260503003029 | 47 | 28 | 2.0 | 6.0 | 0.00 | 0.00 | 0.00 | 53 | 1017.8 |
| 20260503001529 | 48 | 26 | 3.0 | 9.0 | 0.00 | 0.00 | 0.00 | 51 | 1017.7 |
| 20260503000043 | 49 | 20 | 3.0 | 11.0 | 0.00 | 0.00 | 0.00 | 49 | 1017.6 |
| 20260502234531 | 50 | 5 | 2.0 | 7.0 | 0.00 | 0.00 | 0.00 | 49 | 1017.5 |
| 20260502233033 | 50 | 0 | 1.0 | 11.0 | 0.00 | 0.00 | 0.00 | 50 | 1017.5 |
| 20260502231534 | 51 | 13 | 3.0 | 7.0 | 0.00 | 0.00 | 0.00 | 46 | 1017.4 |
| 20260502230032 | 51 | 336 | 3.0 | 12.0 | 0.00 | 0.00 | 0.00 | 46 | 1017.4 |
| 20260502224529 | 51 | 342 | 4.0 | 16.0 | 0.00 | 0.00 | 0.00 | 48 | 1017.3 |
| 20260502223032 | 52 | 16 | 2.0 | 9.0 | 0.00 | 0.00 | 0.00 | 45 | 1017.2 |
| 20260502221533 | 52 | 289 | 1.0 | 10.0 | 0.00 | 0.00 | 0.00 | 45 | 1017.2 |
| 20260502220033 | 52 | 306 | 2.0 | 11.0 | 0.00 | 0.00 | 0.00 | 44 | 1017.2 |
| 20260502214536 | 53 | 284 | 3.0 | 12.0 | 0.00 | 0.00 | 0.00 | 45 | 1017.0 |